FW7071 Weather Reports


Display with metric or nautical units.
time (UTC)temp
F
wind
direction
speed
MPH
gust
MPH
rain 1hr
in
rain 24hr
in
rain mn
in
humidity
%
barometer
mb
20260831011039 74 173 0.0 0.0 0.00 0.17 0.17 99 1021.0
20260831010534 74 168 0.0 0.0 0.00 0.17 0.17 99 1021.1
20260831010030 74 231 1.0 2.0 0.00 0.17 0.17 99 1021.2
20260831005525 74 193 0.0 0.0 0.00 0.17 0.17 99 1020.7
20260831005024 74 192 0.0 0.0 0.00 0.17 0.17 99 1020.8
20260831004521 74 192 0.0 0.0 0.00 0.17 0.17 99 1020.7
20260831004016 75 192 0.0 0.0 0.00 0.17 0.17 99 1020.6
20260831003512 75 317 0.0 0.0 0.00 0.17 0.17 99 1020.7
20260831003008 75 212 0.0 0.0 0.07 0.17 0.17 99 1020.6
20260831002506 75 233 1.0 2.0 0.31 0.17 0.17 99 1020.5
20260831002001 75 224 0.0 1.0 0.35 0.16 0.16 98 1020.3
20260831001456 75 82 0.0 0.0 0.05 0.11 0.11 98 1020.4
20260831000953 75 164 0.0 0.0 0.00 0.10 0.10 98 1020.4
20260831000449 75 164 0.0 0.0 0.00 0.10 0.10 98 1020.2
20260830235947 75 163 0.0 0.0 0.00 0.10 0.10 98 1020.2
20260830235442 75 163 0.0 0.0 0.00 0.10 0.10 98 1020.1
20260830234937 75 158 0.0 0.0 0.00 0.10 0.10 98 1020.2
20260830234432 75 158 0.0 0.0 0.00 0.10 0.10 98 1020.1
20260830233928 75 158 0.0 0.0 0.00 0.10 0.10 98 1020.0
20260830233424 75 165 0.0 0.0 0.00 0.10 0.10 99 1020.1
20260830232919 74 165 0.0 0.0 0.00 0.10 0.10 99 1020.2
20260830232414 74 176 0.0 0.0 0.00 0.10 0.10 99 1020.2
20260830231911 74 178 0.0 0.0 0.00 0.10 0.10 99 1020.3
20260830231401 74 178 0.0 0.0 0.00 0.10 0.10 99 1020.4
20260830230900 74 180 0.0 0.0 0.00 0.10 0.10 99 1020.6
20260830230356 74 180 0.0 0.0 0.00 0.10 0.10 99 1020.3
20260830225855 74 180 0.0 0.0 0.00 0.10 0.10 99 1020.4
20260830225350 74 180 0.0 0.0 0.00 0.10 0.10 99 1020.4
20260830224845 74 180 0.0 0.0 0.00 0.10 0.10 99 1020.6
20260830224344 74 150 0.0 0.0 0.00 0.10 0.10 99 1020.5
20260830223841 74 162 1.0 1.0 0.00 0.10 0.10 99 1020.2
20260830223337 74 163 0.0 0.0 0.00 0.10 0.10 99 1020.2
20260830222836 74 163 0.0 0.0 0.00 0.10 0.10 99 1020.4
20260830222326 74 163 0.0 0.0 0.00 0.10 0.10 99 1020.2
20260830221821 74 163 0.0 0.0 0.00 0.10 0.10 99 1020.4
20260830221318 74 163 0.0 0.0 0.00 0.10 0.10 99 1020.3
20260830220812 74 163 0.0 0.0 0.00 0.10 0.10 99 1020.2
20260830220312 74 163 0.0 0.0 0.00 0.10 0.10 99 1020.3
20260830215804 74 162 0.0 1.0 0.00 0.10 0.10 99 1020.0
20260830215259 75 187 0.0 1.0 0.00 0.10 0.10 99 1020.1
20260830214754 75 139 0.0 1.0 0.00 0.10 0.10 99 1020.1
20260830214249 75 150 1.0 1.0 0.00 0.10 0.10 99 1020.3
20260830213748 76 160 0.0 0.0 0.00 0.10 0.10 99 1020.3
20260830213243 75 160 0.0 0.0 0.00 0.10 0.10 99 1020.2
20260830212739 75 160 0.0 0.0 0.00 0.10 0.10 99 1020.0
20260830212235 75 161 0.0 0.0 0.00 0.10 0.10 99 1020.2
20260830211734 75 166 0.0 1.0 0.00 0.10 0.10 99 1020.2
20260830211233 74 167 0.0 0.0 0.00 0.10 0.10 99 1020.2
20260830210730 73 174 1.0 1.0 0.00 0.10 0.10 97 1020.2
20260830210229 74 237 2.0 2.0 0.24 0.10 0.10 98 1020.2
20260830205726 75 125 1.0 1.0 0.61 0.10 0.10 97 1020.1
20260830205221 78 209 3.0 5.0 0.00 0.00 0.00 93 1020.3
20260830204716 79 306 2.0 2.0 0.00 0.00 0.00 91 1020.2
20260830204215 80 158 0.0 0.0 0.00 0.00 0.00 87 1020.3
20260830203711 80 184 0.0 1.0 0.00 0.00 0.00 86 1020.1
20260830203207 80 214 0.0 1.0 0.00 0.00 0.00 86 1020.3
20260830202706 80 213 0.0 1.0 0.00 0.00 0.00 85 1020.3
20260830202202 80 236 0.0 0.0 0.00 0.00 0.00 84 1020.3
20260830201701 81 249 1.0 2.0 0.00 0.00 0.00 84 1020.3
20260830201156 82 272 0.0 1.0 0.00 0.00 0.00 82 1020.5
20260830200652 82 263 1.0 2.0 0.00 0.00 0.00 82 1020.2
20260830200151 81 18 2.0 2.0 0.00 0.00 0.00 83 1020.5
20260830195646 82 229 7.0 8.0 0.00 0.00 0.00 82 1020.3
20260830195144 83 236 1.0 2.0 0.00 0.00 0.00 82 1020.5
20260830194643 82 198 2.0 3.0 0.00 0.00 0.00 83 1020.8
20260830194143 82 226 2.0 2.0 0.00 0.00 0.00 81 1020.6
20260830193638 82 248 2.0 2.0 0.00 0.00 0.00 83 1020.8
20260830193133 81 259 2.0 2.0 0.00 0.00 0.00 82 1020.9
20260830192629 81 317 2.0 3.0 0.00 0.00 0.00 82 1020.8
20260830192129 81 271 3.0 6.0 0.00 0.00 0.00 82 1021.1
20260830191624 81 244 3.0 5.0 0.00 0.00 0.00 81 1021.1
20260830191119 82 230 2.0 2.0 0.00 0.00 0.00 80 1021.2
20260830190610 83 240 2.0 2.0 0.00 0.00 0.00 80 1021.2
20260830190104 82 237 3.0 3.0 0.00 0.00 0.00 81 1021.1
20260830185602 81 255 2.0 2.0 0.00 0.00 0.00 81 1021.3
20260830185058 82 222 3.0 3.0 0.00 0.00 0.00 80 1021.2
20260830184557 81 213 3.0 3.0 0.00 0.00 0.00 82 1021.0
20260830184052 82 225 6.0 7.0 0.00 0.00 0.00 81 1021.3
20260830183547 82 219 4.0 7.0 0.00 0.00 0.00 81 1021.3
20260830183043 82 183 3.0 3.0 0.00 0.00 0.00 82 1021.3
20260830182538 81 260 3.0 3.0 0.00 0.00 0.00 82 1021.6
20260830182034 80 288 4.0 5.0 0.00 0.00 0.00 83 1021.8
20260830181530 80 209 4.0 6.0 0.00 0.00 0.00 84 1021.7
20260830181030 80 196 0.0 1.0 0.00 0.00 0.00 85 1021.7
20260830180529 80 143 3.0 3.0 0.00 0.00 0.00 83 1021.7
20260830180028 80 212 6.0 7.0 0.00 0.00 0.00 83 1021.8
20260830175527 80 241 2.0 3.0 0.00 0.00 0.00 85 1021.7
20260830175023 80 277 6.0 11.0 0.00 0.00 0.00 84 1021.9
20260830174519 80 224 2.0 2.0 0.00 0.00 0.00 85 1022.2
20260830174014 79 225 2.0 2.0 0.00 0.00 0.00 86 1022.2
20260830173509 79 221 1.0 2.0 0.00 0.00 0.00 87 1022.4
20260830173009 79 256 3.0 3.0 0.00 0.00 0.00 86 1022.3
20260830172506 79 201 1.0 1.0 0.00 0.00 0.00 87 1022.3
20260830172002 78 283 2.0 3.0 0.00 0.00 0.00 87 1022.4
20260830171457 78 294 4.0 6.0 0.00 0.00 0.00 86 1022.5
20260830170957 78 205 2.0 2.0 0.00 0.00 0.00 87 1022.7
20260830170451 77 188 1.0 2.0 0.00 0.00 0.00 88 1022.8
20260830165949 0 0.0 0.0 0.00 0.00 0.00 1022.6
20260830165447 75 279 3.0 5.0 0.00 0.00 0.00 90 1022.5
20260830164942 75 279 3.0 5.0 0.00 0.00 0.00 90 1022.6
20260830164438 75 279 3.0 5.0 0.00 0.00 0.00 90 1022.7
20260830163934 0 0.0 0.0 0.00 0.00 0.00 1022.8
20260830163430 0 0.0 0.0 0.00 0.00 0.00 1022.9
20260830162929 0 0.0 0.0 0.00 0.00 0.00 1022.9
20260830162426 0 0.0 0.0 0.00 0.00 0.00 1023.0
20260830161925 0 0.0 0.0 0.00 0.00 0.00 1022.8
20260830161426 0 0.0 0.0 0.00 0.00 0.00 1022.9
20260830160920 0 0.0 0.0 0.00 0.00 0.00 1022.9
20260830160417 0 0.0 0.0 0.00 0.00 0.00 1023.0
20260830155911 0 0.0 0.0 0.00 0.00 0.00 1023.0
20260830155408 0 0.0 0.0 0.00 0.00 0.00 1023.1
20260830154903 75 236 3.0 3.0 0.00 0.00 0.00 90 1023.3
20260830154359 75 236 3.0 3.0 0.00 0.00 0.00 90 1023.2
20260830153855 75 236 3.0 3.0 0.00 0.00 0.00 90 1023.2
20260830153355 75 274 4.0 5.0 0.00 0.00 0.00 90 1023.6
20260830152849 75 232 2.0 3.0 0.00 0.00 0.00 90 1023.3
20260830152344 75 232 2.0 3.0 0.00 0.00 0.00 90 1023.2
20260830151838 75 210 1.0 1.0 0.00 0.00 0.00 90 1023.3
20260830151338 0 0.0 0.0 0.00 0.00 0.00 1023.5
20260830150833 0 0.0 0.0 0.00 0.00 0.00 1023.1
20260830150332 0 0.0 0.0 0.00 0.00 0.00 1023.2
20260830145827 0 0.0 0.0 0.00 0.00 0.00 1023.4
20260830145322 0 0.0 0.0 0.00 0.00 0.00 1023.3
20260830144817 0 0.0 0.0 0.00 0.00 0.00 1023.4
20260830144313 0 0.0 0.0 0.00 0.00 0.00 1023.4
20260830143809 0 0.0 0.0 0.00 0.00 0.00 1023.5
20260830143308 0 0.0 0.0 0.00 0.00 0.00 1023.5
20260830142803 0 0.0 0.0 0.00 0.00 0.00 1023.4
20260830142258 0 0.0 0.0 0.00 0.00 0.00 1023.5
20260830141753 0 0.0 0.0 0.00 0.00 0.00 1023.6
20260830141248 0 0.0 0.0 0.00 0.00 0.00 1023.5
20260830140743 0 0.0 0.0 0.00 0.00 0.00 1023.7
20260830140238 0 0.0 0.0 0.00 0.00 0.00 1023.7
20260830135732 0 0.0 0.0 0.00 0.00 0.00 1023.7
20260830135227 68 229 1.0 2.0 0.00 0.00 0.00 94 1023.9
20260830134723 68 229 1.0 2.0 0.00 0.00 0.00 94 1023.7
20260830134218 68 229 1.0 2.0 0.00 0.00 0.00 94 1023.9
20260830133714 0 0.0 0.0 0.00 0.00 0.00 1023.8
20260830133210 0 0.0 0.0 0.00 0.00 0.00 1024.1
20260830132705 66 251 2.0 2.0 0.00 0.00 0.00 95 1024.1
20260830132201 66 251 2.0 2.0 0.00 0.00 0.00 95 1023.8
20260830131659 66 251 2.0 2.0 0.00 0.00 0.00 95 1024.1
20260830131154 65 231 1.0 1.0 0.00 0.00 0.00 96 1024.0
20260830130649 64 138 0.0 1.0 0.00 0.00 0.00 97 1024.2
20260830130143 63 113 0.0 0.0 0.00 0.00 0.00 98 1024.2
20260830125643 63 137 0.0 0.0 0.00 0.00 0.00 98 1024.1
20260830125138 62 185 0.0 0.0 0.00 0.00 0.00 98 1024.4
20260830124636 62 180 0.0 0.0 0.00 0.00 0.00 98 1024.3
20260830124131 61 167 0.0 0.0 0.00 0.00 0.00 98 1024.2
20260830123628 61 170 0.0 0.0 0.00 0.00 0.00 98 1024.3
20260830123124 61 194 0.0 0.0 0.00 0.00 0.00 98 1024.4
20260830122621 61 163 0.0 0.0 0.00 0.00 0.00 98 1024.3
20260830122116 61 194 0.0 0.0 0.00 0.00 0.00 98 1024.2
20260830121612 61 201 0.0 0.0 0.00 0.00 0.00 99 1024.3
20260830121111 61 201 0.0 0.0 0.00 0.00 0.00 99 1024.4
20260830120606 60 178 0.0 0.0 0.00 0.00 0.00 99 1024.4
20260830115559 60 161 0.0 0.0 0.00 0.00 0.00 99 1024.3
20260830115054 60 159 0.0 0.0 0.00 0.00 0.00 99 1024.3
20260830114550 60 138 0.0 0.0 0.00 0.00 0.00 99 1024.4
20260830114050 60 149 0.0 0.0 0.00 0.00 0.00 99 1024.6
20260830113545 60 144 0.0 0.0 0.00 0.00 0.00 99 1024.3
20260830113040 60 146 0.0 0.0 0.00 0.00 0.00 99 1024.3
20260830112536 59 192 0.0 0.0 0.00 0.00 0.00 99 1024.0
20260830112033 60 192 0.0 0.0 0.00 0.00 0.00 99 1024.4
20260830111528 59 193 0.0 0.0 0.00 0.00 0.00 99 1024.5
20260830111024 59 195 0.0 0.0 0.00 0.00 0.00 99 1024.4
20260830110523 59 195 0.0 0.0 0.00 0.00 0.00 99 1024.6
20260830110019 59 177 0.0 0.0 0.00 0.00 0.00 99 1024.4
20260830105514 59 177 0.0 0.0 0.00 0.00 0.00 99 1024.3
20260830105010 59 206 0.0 0.0 0.00 0.00 0.00 99 1024.5
20260830104507 59 206 0.0 0.0 0.00 0.00 0.00 99 1024.4
20260830104002 59 207 0.0 0.0 0.00 0.00 0.00 99 1024.5
20260830103457 59 218 0.0 0.0 0.00 0.00 0.00 99 1024.5
20260830102955 59 225 0.0 0.0 0.00 0.00 0.00 99 1024.5
20260830102450 59 224 0.0 0.0 0.00 0.00 0.00 99 1024.4
20260830101946 59 228 0.0 1.0 0.00 0.00 0.00 99 1024.4
20260830101442 59 230 0.0 0.0 0.00 0.00 0.00 99 1024.6
20260830100941 59 231 1.0 1.0 0.00 0.00 0.00 99 1024.6
20260830100440 59 230 0.0 0.0 0.00 0.00 0.00 99 1024.5
20260830095933 58 231 0.0 0.0 0.00 0.00 0.00 99 1024.2
20260830095430 58 233 0.0 0.0 0.00 0.00 0.00 99 1024.3
20260830094926 58 245 1.0 1.0 0.00 0.00 0.00 99 1024.3
20260830094422 58 223 0.0 0.0 0.00 0.00 0.00 99 1024.2
20260830093917 58 223 0.0 0.0 0.00 0.00 0.00 99 1024.4
20260830093412 58 223 0.0 0.0 0.00 0.00 0.00 99 1024.3
20260830092908 58 223 0.0 0.0 0.00 0.00 0.00 99 1024.4
20260830092403 58 223 0.0 0.0 0.00 0.00 0.00 99 1024.5
20260830091900 57 223 0.0 0.0 0.00 0.00 0.00 99 1024.1
20260830091359 57 223 0.0 0.0 0.00 0.00 0.00 99 1024.3
20260830090858 57 223 0.0 0.0 0.00 0.00 0.00 99 1024.4
20260830090354 57 223 0.0 0.0 0.00 0.00 0.00 99 1024.3
20260830085854 57 223 0.0 0.0 0.00 0.00 0.00 99 1024.5
20260830085348 57 223 0.0 0.0 0.00 0.00 0.00 99 1024.4
20260830084845 57 223 0.0 0.0 0.00 0.00 0.00 99 1024.4
20260830084340 57 223 0.0 0.0 0.00 0.00 0.00 99 1024.6
20260830083835 57 223 0.0 0.0 0.00 0.00 0.00 99 1024.6
20260830083331 57 223 0.0 0.0 0.00 0.00 0.00 99 1024.4
20260830082830 58 223 0.0 0.0 0.00 0.00 0.00 99 1024.5
20260830082325 58 223 0.0 0.0 0.00 0.00 0.00 99 1024.6
20260830081821 57 223 0.0 0.0 0.00 0.00 0.00 99 1024.9
20260830081320 57 223 0.0 0.0 0.00 0.00 0.00 99 1024.9
20260830080815 57 223 0.0 0.0 0.00 0.00 0.00 99 1025.0
20260830080312 57 223 0.0 0.0 0.00 0.00 0.00 99 1024.8
20260830075811 57 223 0.0 0.0 0.00 0.00 0.00 99 1024.8
20260830075306 57 223 0.0 0.0 0.00 0.00 0.00 99 1024.8
20260830074800 57 223 0.0 0.0 0.00 0.00 0.00 99 1024.9
20260830074256 57 223 0.0 0.0 0.00 0.00 0.00 99 1024.9
20260830073752 57 223 0.0 0.0 0.00 0.00 0.00 99 1025.1
20260830073243 57 223 0.0 0.0 0.00 0.00 0.00 99 1025.1
20260830072742 57 223 0.0 0.0 0.00 0.00 0.00 99 1025.0
20260830072232 57 223 0.0 0.0 0.00 0.00 0.00 99 1025.1
20260830071727 58 223 0.0 0.0 0.00 0.00 0.00 99 1025.1
20260830071226 58 223 0.0 0.0 0.00 0.00 0.00 99 1024.9
20260830070725 58 223 0.0 0.0 0.00 0.00 0.00 99 1025.0
20260830070220 58 223 0.0 0.0 0.00 0.00 0.00 99 1025.4
20260830065719 58 223 0.0 0.0 0.00 0.00 0.00 99 1025.0
20260830065214 58 223 0.0 0.0 0.00 0.00 0.00 99 1024.9
20260830064712 58 223 0.0 0.0 0.00 0.00 0.00 99 1024.9
20260830064208 58 223 0.0 0.0 0.00 0.00 0.00 99 1025.0
20260830063702 58 223 0.0 0.0 0.00 0.00 0.00 99 1025.0
20260830063201 58 223 0.0 0.0 0.00 0.00 0.00 98 1025.2
20260830062655 58 223 0.0 0.0 0.00 0.00 0.00 98 1025.2
20260830062150 58 223 0.0 0.0 0.00 0.00 0.00 98 1024.9
20260830061644 58 223 0.0 0.0 0.00 0.00 0.00 98 1025.2
20260830061140 58 224 0.0 0.0 0.00 0.00 0.00 98 1025.0
20260830060638 58 222 0.0 0.0 0.00 0.00 0.00 97 1025.2
20260830060133 58 221 0.0 0.0 0.00 0.00 0.00 97 1024.8
20260830055628 58 220 0.0 0.0 0.00 0.00 0.00 97 1025.1
20260830055124 58 220 0.0 0.0 0.00 0.00 0.00 96 1024.9
20260830054619 59 220 0.0 0.0 0.00 0.00 0.00 96 1025.4
20260830054114 59 220 0.0 0.0 0.00 0.00 0.00 95 1025.0
20260830053610 59 220 0.0 0.0 0.00 0.00 0.00 95 1025.1
20260830053109 59 220 0.0 0.0 0.00 0.00 0.00 96 1025.1
20260830052605 59 220 0.0 0.0 0.00 0.00 0.00 95 1024.9
20260830052100 59 220 0.0 0.0 0.00 0.00 0.00 96 1024.9
20260830051555 59 221 0.0 0.0 0.00 0.00 0.00 95 1025.1
20260830051051 59 221 0.0 0.0 0.00 0.00 0.00 95 1025.1
20260830050549 60 221 0.0 0.0 0.00 0.00 0.00 95 1025.1
20260830050044 60 221 0.0 0.0 0.00 0.00 0.00 94 1025.1
20260830045543 60 221 0.0 0.0 0.00 0.00 0.00 94 1025.3
20260830045038 60 221 0.0 0.0 0.00 0.00 0.00 94 1025.2
20260830044532 60 221 0.0 0.0 0.00 0.00 0.00 95 1025.1
20260830044027 60 221 0.0 0.0 0.00 0.00 0.00 95 1025.0
20260830043523 60 221 0.0 0.0 0.00 0.00 0.00 94 1025.0
20260830043021 60 221 0.0 0.0 0.00 0.00 0.00 94 1025.1
20260830042519 61 221 0.0 0.0 0.00 0.00 0.00 94 1024.9
20260830042014 61 221 0.0 0.0 0.00 0.00 0.00 93 1024.9
20260830041508 61 221 0.0 0.0 0.00 0.00 0.00 93 1024.8
20260830041003 61 221 0.0 0.0 0.00 0.00 0.00 92 1024.5
20260830040458 62 221 0.0 0.0 0.00 0.00 0.00 92 1024.6
20260830035957 62 221 0.0 0.0 0.00 0.00 0.00 92 1024.9
20260830035456 62 221 0.0 0.0 0.00 0.00 0.00 92 1024.5
20260830034952 62 222 0.0 0.0 0.00 0.00 0.00 91 1024.8
20260830034448 62 222 0.0 0.0 0.00 0.00 0.00 92 1024.9
20260830033947 62 221 0.0 0.0 0.00 0.00 0.00 92 1024.9
20260830033442 61 222 0.0 0.0 0.00 0.00 0.00 91 1024.9
20260830032938 61 222 0.0 0.0 0.00 0.00 0.00 90 1024.4
20260830032437 62 222 0.0 0.0 0.00 0.00 0.00 90 1024.8
20260830031932 62 221 0.0 0.0 0.00 0.00 0.00 89 1024.8
20260830031427 62 222 0.0 0.0 0.00 0.00 0.00 89 1024.9
20260830030922 62 222 0.0 0.0 0.00 0.00 0.00 88 1024.8
20260830030418 62 222 0.0 0.0 0.00 0.00 0.00 88 1024.8
20260830025912 63 222 0.0 0.0 0.00 0.00 0.00 87 1024.6
20260830025412 63 222 0.0 0.0 0.00 0.00 0.00 86 1024.6
20260830024911 63 222 0.0 0.0 0.00 0.00 0.00 86 1025.0
20260830024407 0 0.0 0.0 0.00 0.00 0.00 1024.9
20260830023903 63 222 0.0 0.0 0.00 0.00 0.00 87 1024.6
20260830023402 63 222 0.0 0.0 0.00 0.00 0.00 87 1024.6
20260830022902 63 222 0.0 0.0 0.00 0.00 0.00 87 1024.8
20260830022357 64 222 0.0 0.0 0.00 0.00 0.00 86 1024.5
20260830021857 64 222 0.0 0.0 0.00 0.00 0.00 86 1024.5
20260830021352 64 222 0.0 0.0 0.00 0.00 0.00 86 1024.8
20260830020852 64 222 0.0 0.0 0.00 0.00 0.00 85 1024.8
20260830020347 64 222 0.0 0.0 0.00 0.00 0.00 86 1024.9
20260830015843 64 222 0.0 0.0 0.00 0.00 0.00 84 1024.8
20260830015337 65 222 0.0 0.0 0.00 0.00 0.00 82 1024.9
20260830014832 65 222 0.0 0.0 0.00 0.00 0.00 82 1024.5
20260830014329 65 222 0.0 0.0 0.00 0.00 0.00 81 1024.8
20260830013824 65 222 0.0 0.0 0.00 0.00 0.00 81 1024.6
20260830013319 65 222 0.0 0.0 0.00 0.00 0.00 81 1024.8
20260830012815 66 222 0.0 1.0 0.00 0.00 0.00 80 1024.5
20260830012310 66 222 0.0 0.0 0.00 0.00 0.00 79 1024.5
20260830011806 66 222 0.0 0.0 0.00 0.00 0.00 78 1024.5
20260830011301 66 222 0.0 0.0 0.00 0.00 0.00 78 1024.3